GW5434 Weather Reports


time (UTC)temp
C
wind
direction
speed
KPH
gust
KPH
rain 1hr
cm
rain 24hr
cm
rain mn
cm
humidity
%
barometer
mb
20260904000006 28 279 0.0 6.4 0.00 0.00 0.00 77 1014.3
20260903234513 29 209 0.0 3.2 0.00 0.00 0.00 75 1014.4
20260903233015 30 211 0.0 0.0 0.00 0.00 0.00 75 1014.3
20260903231532 30 148 0.0 4.8 0.00 0.00 0.00 73 1014.3
20260903230032 30 129 1.6 3.2 0.00 0.00 0.00 73 1014.2
20260903224525 30 139 0.0 4.8 0.00 0.00 0.00 73 1014.2
20260903223013 31 276 1.6 6.4 0.00 0.00 0.00 73 1014.1
20260903221520 32 215 1.6 8.0 0.00 0.00 0.00 72 1013.8
20260903220030 33 221 0.0 0.0 0.00 0.00 0.00 69 1013.9
20260903214537 33 175 0.0 0.0 0.00 0.00 0.00 67 1013.7
20260903213011 33 322 1.6 1.6 0.00 0.00 0.00 65 1013.3
20260903211514 33 277 0.0 8.0 0.00 0.00 0.00 63 1013.3
20260903210020 33 290 3.2 4.8 0.00 0.00 0.00 63 1013.5
20260903204527 33 307 4.8 12.9 0.00 0.00 0.00 62 1013.7
20260903203029 34 316 1.6 4.8 0.00 0.00 0.00 60 1013.8
20260903201513 34 238 1.6 4.8 0.00 0.00 0.00 54 1014.0
20260903200016 35 323 3.2 6.4 0.00 0.00 0.00 55 1014.1
20260903194506 34 72 1.6 11.3 0.00 0.00 0.00 55 1014.2
20260903193004 35 26 3.2 9.7 0.00 0.00 0.00 53 1014.5
20260903191508 36 326 3.2 8.0 0.00 0.00 0.00 47 1014.5
20260903190011 36 344 4.8 14.5 0.00 0.00 0.00 53 1014.7
20260903184504 37 101 3.2 9.7 0.00 0.00 0.00 47 1014.9
20260903183006 36 38 4.8 17.7 0.00 0.00 0.00 50 1015.1
20260903181507 36 137 4.8 8.0 0.00 0.00 0.00 52 1015.3
20260903180010 35 115 1.6 6.4 0.00 0.00 0.00 57 1015.6
20260903174514 35 123 3.2 12.9 0.00 0.00 0.00 56 1015.9
20260903173003 35 220 0.0 9.7 0.00 0.00 0.00 55 1016.0
20260903171506 35 30 3.2 9.7 0.00 0.00 0.00 56 1016.2
20260903170007 34 92 1.6 6.4 0.00 0.00 0.00 56 1016.4
20260903164512 34 282 3.2 11.3 0.00 0.00 0.00 58 1016.6
20260903163015 33 23 3.2 8.0 0.00 0.00 0.00 61 1016.8
20260903161519 33 110 3.2 6.4 0.00 0.00 0.00 60 1016.8
20260903160003 33 112 1.6 6.4 0.00 0.00 0.00 65 1016.7
20260903154505 32 308 3.2 8.0 0.00 0.00 0.00 66 1016.8
20260903153015 32 93 1.6 8.0 0.00 0.00 0.00 69 1016.8
20260903151518 31 302 3.2 9.7 0.00 0.00 0.00 70 1016.7
20260903150022 31 70 1.6 8.0 0.00 0.00 0.00 72 1016.6
20260903144505 30 295 3.2 9.7 0.00 0.00 0.00 74 1016.7
20260903143010 30 67 4.8 11.3 0.00 0.00 0.00 76 1016.8
20260903141515 29 117 0.0 8.0 0.00 0.00 0.00 78 1016.7
20260903140021 28 327 1.6 8.0 0.00 0.00 0.00 80 1016.8
20260903134519 27 335 1.6 8.0 0.00 0.00 0.00 82 1016.7
20260903133008 27 321 0.0 0.0 0.00 0.00 0.00 84 1016.8
20260903131511 26 331 0.0 0.0 0.00 0.00 0.00 86 1017.0
20260903130014 25 114 0.0 0.0 0.00 0.00 0.00 91 1016.8
20260903124523 23 114 0.0 0.0 0.00 0.00 0.00 94 1016.8
20260903123031 22 114 0.0 0.0 0.00 0.00 0.00 94 1016.8
20260903121507 22 114 0.0 0.0 0.00 0.00 0.00 94 1016.8
20260903120012 22 114 0.0 0.0 0.00 0.00 0.00 94 1016.6
20260903114520 22 114 0.0 0.0 0.00 0.00 0.00 93 1016.6
20260903113027 22 114 0.0 0.0 0.00 0.00 0.00 93 1016.4
20260903111535 22 114 0.0 0.0 0.00 0.00 0.00 93 1016.2
20260903110015 22 114 0.0 0.0 0.00 0.00 0.00 93 1016.1
20260903104514 22 114 0.0 0.0 0.00 0.00 0.00 93 1016.1
20260903103019 22 114 0.0 0.0 0.00 0.00 0.00 93 1016.0
20260903101536 22 114 0.0 0.0 0.00 0.00 0.00 93 1016.0
20260903100027 22 114 0.0 0.0 0.00 0.00 0.00 93 1015.9
20260903094511 22 114 0.0 0.0 0.00 0.00 0.00 93 1015.9
20260903093018 22 113 0.0 0.0 0.00 0.00 0.00 92 1015.9
20260903091523 23 113 0.0 0.0 0.00 0.00 0.00 92 1015.9
20260903090027 23 114 0.0 0.0 0.00 0.00 0.00 93 1015.9
20260903084526 23 114 0.0 0.0 0.00 0.00 0.00 92 1016.1
20260903083018 23 114 0.0 0.0 0.00 0.00 0.00 92 1016.1
20260903081529 23 113 0.0 0.0 0.00 0.00 0.00 92 1016.1
20260903080023 23 113 0.0 0.0 0.00 0.00 0.00 92 1016.0
20260903074530 23 113 0.0 0.0 0.00 0.00 0.00 92 1016.0
20260903073027 23 113 0.0 0.0 0.00 0.00 0.00 91 1016.0
20260903071516 23 113 0.0 0.0 0.00 0.00 0.00 91 1016.1
20260903070020 23 113 0.0 0.0 0.00 0.00 0.00 90 1016.2
20260903064527 23 113 0.0 0.0 0.00 0.00 0.00 91 1016.3
20260903063051 23 114 0.0 0.0 0.00 0.00 0.00 90 1016.4
20260903061530 24 114 0.0 0.0 0.00 0.00 0.00 89 1016.5
20260903060020 24 114 0.0 0.0 0.00 0.00 0.00 89 1016.7
20260903054520 25 114 0.0 0.0 0.00 0.00 0.00 88 1016.8
20260903053026 25 115 0.0 0.0 0.00 0.00 0.00 88 1016.9
20260903051532 24 171 0.0 0.0 0.00 0.00 0.00 89 1016.9
20260903050038 25 171 0.0 0.0 0.00 0.00 0.00 88 1017.0
20260903044519 25 166 0.0 0.0 0.00 0.00 0.00 87 1017.0
20260903043003 25 166 0.0 0.0 0.00 0.00 0.00 87 1016.9
20260903041510 25 166 0.0 0.0 0.00 0.00 0.00 86 1016.8
20260903040009 26 166 0.0 0.0 0.00 0.00 0.00 85 1016.9
20260903034526 26 166 0.0 0.0 0.00 0.00 0.00 84 1016.8
20260903033024 26 166 0.0 0.0 0.00 0.00 0.00 82 1016.8
20260903031504 27 166 0.0 0.0 0.00 0.00 0.00 81 1016.9
20260903030009 27 200 0.0 0.0 0.00 0.00 0.00 79 1016.7
20260903024513 28 217 0.0 1.6 0.00 0.00 0.00 78 1016.8
20260903023020 28 131 0.0 3.2 0.00 0.00 0.00 76 1016.7
20260903021528 28 229 1.6 6.4 0.00 0.00 0.00 76 1016.7
20260903020006 28 217 1.6 6.4 0.00 0.00 0.00 75 1016.5
20260903014510 29 207 1.6 8.0 0.00 0.00 0.00 75 1016.5
20260903013014 30 133 3.2 9.7 0.00 0.00 0.00 74 1016.2
20260903011520 30 240 1.6 8.0 0.00 0.00 0.00 73 1016.0
20260903010031 30 191 3.2 6.4 0.00 0.00 0.00 72 1015.8
20260903004508 31 194 0.0 4.8 0.00 0.00 0.00 69 1015.4
20260903003011 31 210 3.2 4.8 0.00 0.00 0.00 67 1015.2
20260903001517 32 90 0.0 12.9 0.00 0.00 0.00 65 1015.2